Terug naar catalogus

LUR-1

ActiefWetenschapSSO
NORAD 60506·PAYLOAD·🇪🇸 Spain

Gelanceerd Aug 16, 2024 vanaf Vandenberg Space Force Base

Loading…

Volgende Passages (komende 24 uur)

TLE

VersSource: Space-Track

Epoch: Sep 13, 2026, 22:58 UTC

1 60506U 24149AQ  26256.95746429  .00005876  00000-0  19806-3 0  9997
2 60506  97.3677 335.1745 0003929  13.7051 346.4296 15.31111989115556

Volg LUR-1 in realtime met AllMySat

Download on the App Store